C/2018 A3 ( ATLAS )

Japanese version
Home page
Updated on September 24, 2019

---------------------------------------------------------------------

* Profile

Discovery Date January 10, 2018
Magnitude 18.7 mag
Discoverer Asteroid Terrestrial-impact Last Alert System (ATLAS) search program

* Pictures

* Orbital Elements

Epoch 2018 Dec. 28.0 TT = JDT 2458480.5
T 2019 Jan. 12.86016 TT                                 MPCW
q   3.2767345            (2000.0)            P               Q
z  +0.0020031      Peri.   86.42581     -0.24777917     +0.95551564
 +/-0.0000003      Node   194.27954     +0.40379719     +0.25196291
e   0.9934363      Incl.  139.56195     +0.88065505     +0.15331197
From 1168 observations 2018 Jan. 10-2019 Apr. 9, mean residual 0".4.

* Finding Charts

* Magnitudes Graph

        m1 = 8.0 + 5 log d + 10.0 log r

---------------------------------------------------------------------

The orbital elements are published on M.P.E.C. 2019-J142.
The charts are made with StellaNavigator Ver.10 (AstroArts).
The magnitudes graphs are made with Comet for Windows.

---------------------------------------------------------------------

Copyright(C) Seiichi Yoshida (comet@aerith.net). All rights reserved.